| time (UTC) | temp F | wind direction | speed knots | gust knots | rain 1hr in | rain 24hr in | rain mn in | humidity % | barometer mb |
| 20260906123103 | 72 | 190 | 0.0 | 0.0 | 0.00 | 0.51 | 0.01 | 99 | 1013.9 |
| 20260906121529 | 72 | 190 | 0.0 | 0.0 | 0.00 | 0.51 | 0.01 | 99 | 1013.9 |
| 20260906120027 | 0 | 0.0 | 0.0 | 0.00 | 0.51 | 0.01 | 1014.0 | ||
| 20260906114521 | 0 | 0.0 | 0.0 | 0.00 | 0.51 | 0.01 | 1014.1 | ||
| 20260906113017 | 0 | 0.0 | 0.0 | 0.00 | 0.51 | 0.01 | 1013.8 | ||
| 20260906111523 | 0 | 0.0 | 0.0 | 0.00 | 0.51 | 0.01 | 1013.5 | ||
| 20260906110007 | 0 | 0.0 | 0.0 | 0.00 | 0.51 | 0.01 | 1013.5 | ||
| 20260906104502 | 0 | 0.0 | 0.0 | 0.00 | 0.51 | 0.01 | 1013.2 | ||
| 20260906103059 | 0 | 0.0 | 0.0 | 0.00 | 0.51 | 0.01 | 1013.2 | ||
| 20260906101554 | 0 | 0.0 | 0.0 | 0.00 | 0.51 | 0.01 | 1012.9 | ||
| 20260906100049 | 0 | 0.0 | 0.0 | 0.00 | 0.51 | 0.01 | 1012.7 | ||
| 20260906094547 | 0 | 0.0 | 0.0 | 0.00 | 0.51 | 0.01 | 1012.7 | ||
| 20260906093046 | 0 | 0.0 | 0.0 | 0.00 | 0.51 | 0.01 | 1012.3 | ||
| 20260906091555 | 0 | 190 | 0.0 | 0.0 | 0.00 | 0.51 | 0.01 | 1012.2 | |
| 20260906090036 | 71 | 190 | 0.0 | 0.0 | 0.00 | 0.51 | 0.01 | 99 | 1012.0 |
| 20260906084535 | 71 | 190 | 0.0 | 0.0 | 0.00 | 0.51 | 0.01 | 99 | 1011.8 |
| 20260906083036 | 71 | 190 | 0.0 | 0.0 | 0.00 | 0.51 | 0.01 | 99 | 1011.9 |
| 20260906081535 | 71 | 190 | 0.0 | 0.0 | 0.00 | 0.51 | 0.01 | 99 | 1011.9 |
| 20260906080035 | 71 | 190 | 0.0 | 0.0 | 0.00 | 0.51 | 0.01 | 99 | 1011.6 |
| 20260906074531 | 71 | 190 | 0.0 | 0.0 | 0.01 | 0.51 | 0.01 | 99 | 1011.6 |
| 20260906073029 | 71 | 190 | 0.0 | 0.0 | 0.01 | 0.51 | 0.01 | 99 | 1011.4 |
| 20260906071529 | 71 | 190 | 0.0 | 0.0 | 0.01 | 0.51 | 0.01 | 99 | 1011.3 |
| 20260906070027 | 72 | 190 | 0.0 | 0.0 | 0.01 | 0.51 | 0.01 | 99 | 1011.4 |
| 20260906064526 | 72 | 190 | 0.0 | 0.0 | 0.00 | 0.50 | 0.00 | 99 | 1011.6 |
| 20260906063027 | 72 | 190 | 0.0 | 0.0 | 0.00 | 0.50 | 0.00 | 99 | 1011.5 |
| 20260906061525 | 72 | 190 | 0.0 | 0.0 | 0.00 | 0.50 | 0.00 | 99 | 1011.5 |
| 20260906060022 | 72 | 190 | 0.0 | 0.0 | 0.00 | 0.50 | 0.00 | 99 | 1011.6 |
| 20260906054521 | 72 | 190 | 0.0 | 0.0 | 0.00 | 0.50 | 0.00 | 98 | 1011.7 |
| 20260906053020 | 72 | 190 | 0.0 | 0.0 | 0.00 | 0.50 | 0.00 | 99 | 1011.9 |
| 20260906051518 | 72 | 190 | 0.0 | 0.0 | 0.00 | 0.50 | 0.00 | 99 | 1012.0 |
| 20260906050018 | 73 | 190 | 0.0 | 0.0 | 0.00 | 0.50 | 0.00 | 99 | 1012.2 |
| 20260906044516 | 73 | 190 | 0.0 | 0.0 | 0.00 | 0.50 | 0.00 | 98 | 1012.3 |
| 20260906043027 | 73 | 190 | 0.0 | 0.0 | 0.00 | 0.50 | 0.00 | 99 | 1012.3 |
| 20260906041512 | 73 | 190 | 0.0 | 0.0 | 0.00 | 0.50 | 0.00 | 98 | 1012.4 |
| 20260906040010 | 73 | 190 | 0.0 | 0.0 | 0.00 | 0.50 | 0.00 | 98 | 1012.4 |
| 20260906034509 | 73 | 190 | 0.0 | 0.0 | 0.00 | 0.50 | 0.50 | 98 | 1012.4 |
| 20260906033018 | 73 | 190 | 0.0 | 0.0 | 0.00 | 0.50 | 0.50 | 98 | 1012.5 |
| 20260906031506 | 74 | 190 | 0.0 | 0.0 | 0.00 | 0.50 | 0.50 | 98 | 1012.4 |
| 20260906030008 | 74 | 190 | 0.0 | 0.0 | 0.00 | 0.50 | 0.50 | 98 | 1012.5 |
| 20260906024604 | 74 | 190 | 0.0 | 0.0 | 0.00 | 0.50 | 0.50 | 98 | 1012.4 |
| 20260906023004 | 74 | 190 | 0.0 | 0.0 | 0.00 | 0.50 | 0.50 | 98 | 1012.4 |
| 20260906021504 | 74 | 190 | 0.0 | 0.0 | 0.00 | 0.50 | 0.50 | 98 | 1012.2 |
| 20260906020009 | 74 | 190 | 0.0 | 0.0 | 0.00 | 0.50 | 0.50 | 98 | 1011.9 |
| 20260906014504 | 75 | 190 | 0.0 | 0.0 | 0.00 | 0.50 | 0.50 | 98 | 1012.1 |
| 20260906013002 | 75 | 190 | 0.0 | 0.0 | 0.00 | 0.50 | 0.50 | 98 | 1012.1 |
| 20260906011501 | 75 | 190 | 0.0 | 0.0 | 0.00 | 0.50 | 0.50 | 98 | 1012.1 |
| 20260906010001 | 75 | 190 | 0.0 | 0.0 | 0.00 | 0.50 | 0.50 | 98 | 1011.8 |
| 20260906004610 | 75 | 190 | 0.0 | 0.0 | 0.00 | 0.50 | 0.50 | 98 | 1011.7 |
| 20260906003104 | 75 | 190 | 0.0 | 0.0 | 0.00 | 0.50 | 0.50 | 98 | 1011.6 |
| 20260906001559 | 75 | 190 | 0.0 | 0.0 | 0.00 | 0.50 | 0.50 | 98 | 1011.4 |
| 20260906000100 | 75 | 190 | 0.0 | 0.0 | 0.00 | 0.50 | 0.50 | 98 | 1011.0 |
| 20260905234558 | 76 | 190 | 0.0 | 0.0 | 0.00 | 0.50 | 0.50 | 97 | 1010.8 |
| 20260905233058 | 76 | 190 | 0.0 | 0.0 | 0.00 | 0.50 | 0.50 | 97 | 1010.6 |
| 20260905231556 | 76 | 190 | 0.0 | 0.0 | 0.00 | 0.50 | 0.50 | 98 | 1010.5 |
| 20260905230057 | 76 | 190 | 0.0 | 0.0 | 0.00 | 0.50 | 0.50 | 97 | 1010.3 |
| 20260905224556 | 76 | 190 | 0.0 | 0.0 | 0.00 | 0.50 | 0.50 | 98 | 1010.0 |
| 20260905223056 | 76 | 190 | 0.0 | 0.0 | 0.00 | 0.50 | 0.50 | 98 | 1010.1 |
| 20260905221555 | 76 | 190 | 0.0 | 0.0 | 0.00 | 0.50 | 0.50 | 97 | 1010.6 |
| 20260905220056 | 76 | 190 | 0.0 | 0.9 | 0.00 | 0.50 | 0.50 | 97 | 1010.4 |
| 20260905214554 | 75 | 190 | 0.0 | 0.0 | 0.00 | 0.50 | 0.50 | 97 | 1010.1 |
| 20260905213054 | 75 | 190 | 0.0 | 0.0 | 0.00 | 0.50 | 0.50 | 97 | 1010.0 |
| 20260905211553 | 75 | 190 | 0.0 | 0.0 | 0.00 | 0.50 | 0.50 | 96 | 1009.9 |
| 20260905210105 | 75 | 190 | 0.0 | 0.0 | 0.00 | 0.50 | 0.50 | 97 | 1010.0 |
| 20260905204558 | 75 | 190 | 0.0 | 0.0 | 0.00 | 0.50 | 0.50 | 96 | 1010.1 |
| 20260905203051 | 75 | 190 | 0.0 | 0.0 | 0.13 | 0.50 | 0.50 | 96 | 1009.8 |
| 20260905201550 | 74 | 190 | 0.0 | 0.0 | 0.50 | 0.50 | 0.50 | 95 | 1009.8 |
| 20260905200049 | 75 | 190 | 0.0 | 0.0 | 0.50 | 0.50 | 0.50 | 94 | 1010.4 |
| 20260905194556 | 76 | 190 | 0.0 | 1.7 | 0.50 | 0.50 | 0.50 | 90 | 1011.2 |
| 20260905193048 | 82 | 190 | 1.7 | 5.2 | 0.36 | 0.36 | 0.36 | 79 | 1012.2 |
| 20260905191550 | 90 | 190 | 0.0 | 2.6 | 0.00 | 0.00 | 0.00 | 65 | 1010.3 |
| 20260905190046 | 94 | 190 | 0.0 | 0.0 | 0.00 | 0.00 | 0.00 | 59 | 1009.9 |
| 20260905184606 | 96 | 190 | 0.0 | 0.9 | 0.00 | 0.00 | 0.00 | 57 | 1009.5 |
| 20260905183048 | 97 | 190 | 0.0 | 1.7 | 0.00 | 0.00 | 0.00 | 55 | 1009.8 |
| 20260905181552 | 98 | 190 | 0.0 | 1.7 | 0.00 | 0.00 | 0.00 | 55 | 1009.8 |
| 20260905180040 | 98 | 190 | 0.9 | 4.3 | 0.00 | 0.00 | 0.00 | 54 | 1010.4 |
| 20260905174535 | 97 | 190 | 0.0 | 1.7 | 0.00 | 0.00 | 0.00 | 55 | 1010.7 |
| 20260905173034 | 97 | 190 | 0.0 | 1.7 | 0.00 | 0.00 | 0.00 | 55 | 1011.2 |
| 20260905171531 | 96 | 190 | 0.0 | 1.7 | 0.00 | 0.00 | 0.00 | 55 | 1011.5 |
| 20260905170029 | 97 | 190 | 0.0 | 0.9 | 0.00 | 0.00 | 0.00 | 56 | 1011.7 |
| 20260905164526 | 96 | 190 | 0.0 | 1.7 | 0.00 | 0.00 | 0.00 | 59 | 1012.0 |
| 20260905163024 | 95 | 190 | 0.9 | 2.6 | 0.00 | 0.00 | 0.00 | 59 | 1012.2 |
| 20260905161521 | 94 | 190 | 0.0 | 2.6 | 0.00 | 0.00 | 0.00 | 62 | 1012.2 |
| 20260905160025 | 93 | 190 | 0.0 | 0.9 | 0.00 | 0.00 | 0.00 | 64 | 1012.3 |
| 20260905154512 | 91 | 190 | 0.0 | 1.7 | 0.00 | 0.00 | 0.00 | 65 | 1012.6 |
| 20260905153009 | 89 | 190 | 0.0 | 1.7 | 0.00 | 0.00 | 0.00 | 67 | 1012.8 |
| 20260905151615 | 88 | 190 | 0.0 | 3.5 | 0.00 | 0.00 | 0.00 | 71 | 1013.1 |
| 20260905150100 | 86 | 190 | 0.0 | 2.6 | 0.00 | 0.00 | 0.00 | 74 | 1013.0 |
| 20260905144555 | 85 | 190 | 0.0 | 0.9 | 0.00 | 0.00 | 0.00 | 78 | 1012.9 |
| 20260905143052 | 83 | 190 | 0.0 | 0.9 | 0.00 | 0.00 | 0.00 | 80 | 1012.9 |
| 20260905141549 | 82 | 190 | 0.0 | 1.7 | 0.00 | 0.00 | 0.00 | 82 | 1012.9 |
| 20260905140047 | 80 | 190 | 0.0 | 0.0 | 0.00 | 0.00 | 0.00 | 85 | 1012.7 |
| 20260905134540 | 79 | 190 | 0.0 | 0.0 | 0.00 | 0.00 | 0.00 | 88 | 1012.8 |
| 20260905133044 | 78 | 190 | 0.0 | 1.7 | 0.00 | 0.00 | 0.00 | 89 | 1012.8 |
| 20260905131540 | 77 | 190 | 0.0 | 1.7 | 0.00 | 0.00 | 0.00 | 90 | 1012.8 |
| 20260905130035 | 76 | 190 | 0.0 | 1.7 | 0.00 | 0.00 | 0.00 | 93 | 1012.9 |
| 20260905124535 | 75 | 190 | 0.0 | 0.9 | 0.00 | 0.00 | 0.00 | 95 | 1013.0 |